Location: Bacea
(45.9500°N, 22.6667°E)
Time: 05:20:59
(UTC+00:00)

Cosmos 1953 - Pass Details

Date: 01 June 2022
Orbit: 533 x 555 km, 82.5° (Epoch: 03 July)

Event Time Altitude Azimuth Distance (km) Brightness Sun altitude
Rises 21:26:50 0° 1° (N) 2,719 7.2 -20.5°
Reaches altitude 10° 21:29:17 10° 14° (NNE) 1,816 5.8 -20.6°
Maximum altitude 21:32:41 26° 73° (ENE) 1,082 3.8 -20.8°
Enters shadow 21:33:21 25° 90° (E) 1,117 3.7 -20.8°
